Home > Weather > Springfield > Past weeks

Flag for USA Weather for the Past 2 Weeks in Springfield, Illinois, USA

Now
54 °F

Clear.


Feels Like: 53 °F
Forecast: 50 / 67 °F
Wind: 6 mph from Northwest

Location: Capital Airport

Current Time: Apr 29, 2016 at 3:13:49 AM

Latest Report: Apr 29, 2016 at 1:52 AM


Visibility: 10 mi

Pressure: 30.02 "Hg

Humidity: 83%

Dew Point: 49 °F

Location of SpringfieldLocation

Historic Weather in Springfield — Graph

°F

Springfield Temperature Yesterday

Maximum temperature yesterday: 67 °F (at 11:52 AM)
Minimum temperature yesterday: 53 °F (at 4:52 AM)
Average temperature yesterday: 60 °F

High & Low Weather Summary for the Past Weeks

 TemperatureHumidityPressure
High84 °F (Apr 25, 4:52 PM)97% (Apr 22, 5:52 AM)30.36 "Hg (Apr 22, 5:52 AM)
Low39 °F (Apr 14, 5:52 AM)22% (Apr 18, 3:52 PM)29.62 "Hg (Apr 26, 4:52 PM)
Average64 °F65%30.00 "Hg
* Reported Apr 14 12:52 AM — Apr 29 12:52 AM, Springfield, Weather by CustomWeather, © 2016

Note: Actual official high and low records may vary slightly from our data, if they occured in-between our weather recording intervals... More about our weather records

Advertising

Springfield Weather History for the Previous 24 Hours

Scroll right to see more
 ConditionsComfort  
Time TempWeatherWind HumidityBarometerVisibility
12:52 AM
Fri, Apr 29
55 °FClear.6 mph83%30.01 "Hg10 mi
11:52 PM
Thu, Apr 28
55 °FClear.6 mph87%30.00 "Hg10 mi
10:52 PM58 °FOvercast.5 mph81%30.01 "Hg10 mi
9:52 PM59 °FOvercast.3 mph75%30.01 "Hg10 mi
8:52 PM60 °FOvercast.6 mph67%29.99 "Hg10 mi
7:52 PM61 °FOvercast.8 mph65%29.97 "Hg10 mi
6:52 PM62 °FOvercast.8 mph60%29.95 "Hg10 mi
5:52 PM64 °FPartly sunny.13 mph61%29.93 "Hg10 mi
4:52 PM64 °FBroken clouds.15 mph61%29.91 "Hg10 mi
3:52 PM67 °FPartly sunny.15 mph59%29.89 "Hg10 mi
2:52 PM66 °FOvercast.22 mph61%29.88 "Hg10 mi
1:52 PM66 °FPartly sunny.18 mph61%29.85 "Hg10 mi
12:52 PM67 °FPassing clouds.20 mph63%29.84 "Hg10 mi
11:52 AM67 °FPartly sunny.14 mph63%29.83 "Hg10 mi
10:52 AM66 °FScattered clouds.12 mph61%29.83 "Hg10 mi
9:52 AM66 °FPartly sunny.8 mph59%29.80 "Hg10 mi
8:52 AM63 °FSunny.6 mph78%29.80 "Hg10 mi
7:52 AM58 °FSunny.3 mph90%29.79 "Hg10 mi
6:57 AM53 °FFog.No wind93%29.78 "Hg4 mi
5:52 AM53 °FPassing clouds.No wind96%29.75 "Hg7 mi
4:52 AM53 °FPassing clouds.7 mph93%29.74 "Hg8 mi
3:52 AM55 °FPassing clouds.No wind90%29.71 "Hg10 mi
Weather by CustomWeather, © 2016

See weather overviewHow to use our weather pages